This demonstration page uses our WeatherBlox Daily Observations layout. Learn more.

Left ArrowRight Arrow

39.51506, -84.39828

Hourly Observations for August 16, 2016

Temp ( °F °C ) Dew Point ( °F °C ) Humidity (%) Winds ( mph kmh ) Pressure ( in mb ) Visibility ( mi km ) Precip ( " mm )
12:15 am 00:15 Clear 77 25.1 70 21.2 79 79 S 6 9 30.06 1018 10 16 N/A
12:35 am 00:35 Clear 77 25.1 70 21.2 79 79 SSE 5 7 30.06 1018 10 16 N/A
12:55 am 00:55 Clear 77 25.1 70 21.3 80 80 S 5 7 30.06 1018 10 16 N/A
1:15 am 01:15 Clear 76 24.5 69 20.6 79 79 SSE 6 9 30.06 1018 10 16 N/A
1:35 am 01:35 Partly Cloudy 74 23.6 68 20 80 80 S 6 9 30.06 1018 10 16 N/A
1:55 am 01:55 Mostly Cloudy 74 23.6 68 20.1 81 81 S 9 15 30.06 1018 10 16 N/A
2:15 am 02:15 Mostly Cloudy with Light Rain 74 23.6 68 20 80 80 SSE 7 11 30.06 1018 10 16 N/A
2:35 am 02:35 Mostly Cloudy 75 23.7 68 20.1 80 80 S 7 11 30.06 1018 10 16 N/A
2:55 am 02:55 Partly Cloudy 74 23.6 68 20 80 80 S 6 9 30.03 1017 10 16 N/A
3:15 am 03:15 Clear 74 23.6 68 20.1 81 81 S 7 11 30.06 1018 10 16 N/A
3:35 am 03:35 Clear 74 23.6 68 20.1 81 81 S 6 9 30.06 1018 10 16 N/A
3:55 am 03:55 Partly Cloudy 74 23.6 68 20.2 81 81 S 6 9 30.03 1017 10 16 N/A
4:15 am 04:15 Mostly Cloudy 74 23.6 68 20.2 81 81 S 6 9 30.03 1017 10 16 N/A
4:35 am 04:35 Partly Cloudy 74 23.6 69 20.3 82 82 S 6 9 30.03 1017 10 16 N/A
4:55 am 04:55 Partly Cloudy 74 23.6 68 20.1 81 81 S 8 13 30.03 1017 10 16 N/A
5:15 am 05:15 Partly Cloudy with Light Rain 74 23.6 68 20.1 81 81 S 7 11 30.03 1017 10 16 N/A
5:35 am 05:35 Partly Cloudy 74 23.6 69 20.4 82 82 S 8 13 30.06 1018 10 16 N/A
5:55 am 05:55 Cloudy with Rain 74 23.6 69 20.6 83 83 S 9 15 30.06 1018 7 11 N/A
6:15 am 06:15 Cloudy with Light Rain 74 23.6 69 20.6 83 83 S 9 15 30.06 1018 10 16 N/A
6:35 am 06:35 Mostly Cloudy 74 23.6 69 20.5 83 83 S 9 15 30.06 1018 10 16 N/A
6:55 am 06:55 Mostly Cloudy 74 23.6 69 20.5 83 83 SSW 7 11 30.06 1018 10 16 N/A
7:15 am 07:15 Partly Cloudy 74 23.6 69 20.6 83 83 S 6 9 30.06 1018 10 16 N/A
7:35 am 07:35 Mostly Cloudy 74 23.6 69 20.6 83 83 S 8 13 30.06 1018 10 16 N/A
7:55 am 07:55 Cloudy 74 23.6 69 20.6 83 83 S 8 13 30.06 1018 10 16 N/A
8:15 am 08:15 Cloudy 74 23.6 69 20.6 83 83 S 8 13 30.09 1019 10 16 N/A
8:35 am 08:35 Cloudy with Rain 74 23.6 70 21 85 85 S 10 17 30.06 1018 7 11 N/A
8:55 am 08:55 Cloudy 74 23.6 70 20.9 85 85 S 7 11 30.06 1018 10 16 N/A
9:15 am 09:15 Cloudy 74 23.6 70 20.9 85 85 SSE 6 9 30.06 1018 10 16 N/A
9:35 am 09:35 Cloudy 77 25.1 72 22 83 83 S 9 15 30.06 1018 10 16 N/A
9:55 am 09:55 Cloudy 77 25.1 72 22 83 83 S 6 9 30.06 1018 10 16 N/A
10:15 am 10:15 Cloudy 77 25.1 71 21.7 81 81 S 9 15 30.06 1018 10 16 N/A
10:35 am 10:35 Mostly Cloudy 80 26.5 72 22.3 78 78 SSW 12 19 30.06 1018 10 16 N/A
10:55 am 10:55 Mostly Cloudy 80 26.5 71 21.5 74 74 SSW 15 24 30.06 1018 10 16 N/A
11:15 am 11:15 Mostly Cloudy 80 26.5 71 21.4 74 74 SSW 17 28 30.06 1018 10 16 N/A
11:35 am 11:35 Cloudy 80 26.5 69 20.8 71 71 SSW 17 28 30.09 1019 10 16 N/A
11:55 am 11:55 Mostly Cloudy 82 28 70 21.2 67 67 SW 15 24 30.06 1018 10 16 N/A
12:15 pm 12:15 Mostly Cloudy 82 28 69 20.7 65 65 SSW 21 33 30.09 1019 10 16 N/A
12:35 pm 12:35 Cloudy 81 27.2 69 20.7 68 68 SW 16 26 30.06 1018 10 16 N/A
12:55 pm 12:55 Mostly Cloudy 81 27.2 70 20.9 69 69 SW 15 24 30.09 1019 10 16 N/A
1:15 pm 13:15 Partly Cloudy 80 26.6 68 20.2 68 68 WSW 13 20 30.09 1019 10 16 N/A
1:35 pm 13:35 Sunny 80 26.9 69 20.4 68 68 WSW 15 24 30.09 1019 10 16 N/A
1:55 pm 13:55 Sunny 80 26.6 68 19.9 67 67 WSW 12 19 30.06 1018 10 16 N/A
2:15 pm 14:15 Sunny 81 27.2 69 20.6 67 67 WSW 12 19 30.06 1018 10 16 N/A
2:35 pm 14:35 Partly Cloudy 81 27.1 69 20.3 66 66 W 8 13 30.06 1018 10 16 N/A
2:55 pm 14:55 Mostly Cloudy 81 27 69 20.4 67 67 W 5 7 30.06 1018 10 16 N/A
3:15 pm 15:15 Mostly Cloudy with Heavy Rain 79 26.1 69 20.5 71 71 WNW 13 20 30.06 1018 7 11 N/A
3:35 pm 15:35 Cloudy with Light Rain 74 23.6 69 20.5 83 83 WNW 7 11 30.06 1018 3 4 N/A
3:55 pm 15:55 Mostly Cloudy 75 23.8 69 20.4 81 81 W 3 6 30.06 1018 10 16 N/A
4:15 pm 16:15 Cloudy with Rain 77 25.1 70 21.3 80 80 W 5 7 30.06 1018 10 16 N/A
4:35 pm 16:35 Cloudy with Light Rain 77 25.1 70 21.1 79 79 WSW 6 9 30.06 1018 10 16 N/A
4:55 pm 16:55 Cloudy with Drizzle 77 25.1 71 21.4 80 80 SW 5 7 30.06 1018 10 16 N/A
5:15 pm 17:15 Cloudy 77 25.1 70 21.3 80 80 SW 6 9 30.06 1018 10 16 N/A
5:35 pm 17:35 Cloudy 77 25.1 70 21 78 78 SW 7 11 30.06 1018 10 16 N/A
5:55 pm 17:55 Mostly Cloudy 77 25.1 70 20.9 78 78 SSW 5 7 30.06 1018 10 16 N/A
6:15 pm 18:15 Mostly Cloudy 77 25.1 70 20.9 78 78 WSW 6 9 30.06 1018 10 16 N/A
6:35 pm 18:35 Cloudy 77 25.1 70 21.3 80 80 WSW 5 7 30.06 1018 7 11 N/A
6:55 pm 18:55 Partly Cloudy 77 25.1 71 21.5 81 81 WSW 6 9 30.06 1018 10 16 N/A
7:15 pm 19:15 Sunny 77 25.1 70 21 78 78 SW 7 11 30.06 1018 10 16 N/A
7:35 pm 19:35 Mostly Cloudy 77 25.1 70 21 78 78 SW 8 13 30.09 1019 10 16 N/A
7:55 pm 19:55 Cloudy 77 25.1 70 21.1 79 79 SW 6 9 30.09 1019 10 16 N/A
8:15 pm 20:15 Mostly Cloudy 77 25.1 70 21.3 80 80 SW 5 7 30.09 1019 10 16 N/A
8:35 pm 20:35 Mostly Cloudy 76 24.5 69 20.8 80 80 SSW 6 9 30.09 1019 10 16 N/A
8:55 pm 20:55 Mostly Cloudy 76 24.2 69 20.6 80 80 SSW 5 7 30.12 1020 10 16 N/A
9:15 pm 21:15 Partly Cloudy 74 23.6 68 20 80 80 SSW 6 9 30.12 1020 10 16 N/A
9:35 pm 21:35 Clear 74 23.6 69 20.3 82 82 SSW 5 7 30.12 1020 10 16 N/A
9:55 pm 21:55 Clear with Drizzle 74 23.6 69 20.4 82 82 SW 3 6 30.12 1020 10 16 N/A
10:15 pm 22:15 Clear with Light Rain 74 23.6 69 20.3 82 82 N N/A 30.12 1020 10 16 N/A
10:35 pm 22:35 Partly Cloudy with Light Rain 74 23.6 69 20.5 83 83 N N/A 30.12 1020 10 16 N/A
10:55 pm 22:55 Partly Cloudy with Light Rain 74 23.6 69 20.6 83 83 N N/A 30.12 1020 10 16 N/A
11:15 pm 23:15 Clear 74 23.6 69 20.6 83 83 SSW 5 7 30.12 1020 10 16 N/A
11:35 pm 23:35 Clear 74 23.6 69 20.8 84 84 SSW 5 7 30.12 1020 10 16 N/A
11:55 pm 23:55 Clear 74 23.6 70 20.9 85 85 SSW 3 6 30.15 1021 10 16 N/A

Powered by AerisWeather